Weather History for KPOV - March, 2014

Change the Weather History Date:

Friday, March 14, 2014

  Actual Average (KCAK) Record (KCAK)
Temperature  
Mean Temperature 42 °F 37 °F  
Max Temperature 57 °F 46 °F 77 °F (1990)
Min Temperature 27 °F 28 °F 7 °F (1895)
Degree Days  
Heating Degree Days 23 28  
Month to date heating degree days 427  
Since 1 July heating degree days 4971  
Cooling Degree Days 0 0  
Month to date cooling degree days 0  
Year to date cooling degree days 0  
Moisture  
Dew Point 23 °F    
Average Humidity 47    
Maximum Humidity 80    
Minimum Humidity 33    
Precipitation  
Precipitation 0.05 in 0.10 in - ()
Month to date precipitation 1.24  
Year to date precipitation 6.16  
Snow  
Snow 0.00 in 0.20 in - ()
Month to date snowfall 4.5  
Since 1 July snowfall 41.0  
Snow Depth -    
Sea Level Pressure  
Sea Level Pressure 29.83 in    
Wind  
Wind Speed 8 mph (SSW)    
Max Wind Speed 28 mph    
Max Gust Speed 47 mph    
Visibility 10 miles    
Events Rain    
T = Trace of Precipitation, MM = Missing Value Source: NWS Daily Summary

Daily Weather History Graph

Daily Weather History Graph

Search for Another Location

Airport or City:

Trip Planner

Search our weather history database for the weather conditions in past years. The results will help you decide how hot, cold, wet, or windy it might be!

Date:

Astronomy

Mar. 14, 2014 Rise Set
Actual Time 7:38 AM EDT 7:30 PM EDT
Civil Twilight 7:10 AM EDT 7:58 PM EDT
Nautical Twilight 6:38 AM EDT 8:30 PM EDT
Astronomical Twilight 6:06 AM EDT 9:02 PM EDT
Moon 5:50 PM EDT (3/14) 6:18 AM EDT (3/14)
Length of Visible Light 12h 47m
Length of Day
11h 52m
Waxing Gibbous, 96% of the Moon is Illuminated
Mar 14
Waxing Gibbous
Mar 16
Full
Mar 23
Last Quarter
Mar 30
New
Apr 7
First Quarter

Hourly Weather History & Observations

Time (EDT) Temp. Windchill Dew Point Humidity Pressure Visibility Wind Dir Wind Speed Gust Speed Precip Events Conditions
12:14 AM 27.0 °F - 13.5 °F 57% 30.04 in 10.0 mi Calm Calm - N/A   Overcast
12:34 AM 27.5 °F 23.6 °F 14.0 °F 57% 30.03 in 10.0 mi South 3.5 mph - N/A   Overcast
12:54 AM 27.9 °F 22.6 °F 14.5 °F 57% 30.02 in 10.0 mi South 4.6 mph - N/A   Overcast
1:14 AM 28.2 °F 22.0 °F 14.9 °F 57% 30.01 in 10.0 mi South 5.8 mph - N/A   Overcast
1:34 AM 28.8 °F 21.7 °F 14.7 °F 56% 30.02 in 10.0 mi SW 6.9 mph - N/A   Overcast
1:54 AM 28.4 °F 22.2 °F 15.4 °F 58% 30.01 in 10.0 mi SSW 5.8 mph - N/A   Overcast
2:14 AM 28.9 °F 21.1 °F 15.1 °F 56% 30.00 in 10.0 mi South 8.1 mph - N/A   Overcast
2:34 AM 29.3 °F 22.3 °F 14.9 °F 55% 30.01 in 10.0 mi SSW 6.9 mph - N/A   Overcast
2:54 AM 29.3 °F 23.2 °F 14.9 °F 55% 30.00 in 10.0 mi South 5.8 mph - N/A   Overcast
3:14 AM 28.6 °F 22.4 °F 14.0 °F 54% 29.99 in 10.0 mi South 5.8 mph - N/A   Scattered Clouds
3:34 AM 28.2 °F 21.0 °F 14.0 °F 55% 29.99 in 10.0 mi South 6.9 mph - N/A   Scattered Clouds
3:54 AM 28.8 °F 22.6 °F 14.2 °F 55% 29.98 in 10.0 mi South 5.8 mph - N/A   Mostly Cloudy
4:14 AM 29.8 °F 23.9 °F 14.9 °F 54% 29.97 in 10.0 mi South 5.8 mph - N/A   Overcast
4:34 AM 31.1 °F 25.4 °F 15.3 °F 52% 29.97 in 10.0 mi SSW 5.8 mph - N/A   Overcast
4:54 AM 31.6 °F 26.0 °F 15.8 °F 52% 29.97 in 10.0 mi SSW 5.8 mph - N/A   Overcast
5:14 AM 32.0 °F 24.2 °F 16.7 °F 53% 29.96 in 10.0 mi SSW 9.2 mph - N/A   Overcast
5:34 AM 32.0 °F 24.8 °F 17.1 °F 54% 29.95 in 10.0 mi SSW 8.1 mph - N/A   Overcast
5:54 AM 32.9 °F 27.5 °F 17.6 °F 53% 29.95 in 10.0 mi SSW 5.8 mph - N/A   Overcast
6:14 AM 32.5 °F 24.8 °F 17.6 °F 54% 29.95 in 10.0 mi SSW 9.2 mph - N/A   Mostly Cloudy
6:34 AM 32.4 °F 26.0 °F 17.6 °F 55% 29.94 in 10.0 mi SSW 6.9 mph - N/A   Clear
6:54 AM 32.0 °F 27.5 °F 17.6 °F 55% 29.94 in 10.0 mi South 4.6 mph - N/A   Clear
7:14 AM 32.0 °F 26.4 °F 17.6 °F 55% 29.93 in 10.0 mi South 5.8 mph - N/A   Clear
7:34 AM 32.0 °F 26.4 °F 17.6 °F 55% 29.93 in 10.0 mi South 5.8 mph - N/A   Clear
7:53 AM 32.0 °F 26.4 °F 17.6 °F 55% 29.92 in 10.0 mi South 5.8 mph - N/A   Clear
8:14 AM 32.4 °F 25.3 °F 17.6 °F 55% 29.92 in 10.0 mi SSW 8.1 mph - N/A   Clear
8:34 AM 33.1 °F 26.9 °F 17.8 °F 53% 29.92 in 10.0 mi SSW 6.9 mph - N/A   Clear
8:54 AM 34.3 °F 29.2 °F 18.1 °F 52% 29.92 in 10.0 mi SSW 5.8 mph - 0.01 in   Clear
9:14 AM 35.6 °F 27.5 °F 18.3 °F 50% 29.92 in 10.0 mi SSW 11.5 mph 16.1 mph 0.01 in   Clear
9:34 AM 36.5 °F 29.2 °F 19.0 °F 49% 29.91 in 10.0 mi SSW 10.4 mph 16.1 mph 0.01 in   Clear
9:54 AM 38.1 °F 30.7 °F 19.4 °F 47% 29.90 in 10.0 mi SSW 11.5 mph 18.4 mph 0.01 in   Clear
10:14 AM 39.0 °F 35.7 °F 20.1 °F 47% 29.89 in 10.0 mi SSW 4.6 mph 19.6 mph N/A   Clear
10:33 AM 41.0 °F 33.9 °F 21.0 °F 45% 29.88 in 10.0 mi SSW 12.7 mph 20.7 mph N/A   Clear
10:54 AM 41.7 °F 35.2 °F 21.7 °F 45% 29.87 in 10.0 mi SSW 11.5 mph 20.7 mph N/A   Clear
11:14 AM 42.3 °F 36.8 °F 22.3 °F 45% 29.87 in 10.0 mi SSW 9.2 mph 20.7 mph N/A   Clear
11:34 AM 43.3 °F 36.8 °F 23.0 °F 45% 29.86 in 10.0 mi SW 12.7 mph 24.2 mph N/A   Clear
11:54 AM 44.6 °F 38.8 °F 23.5 °F 44% 29.85 in 10.0 mi SW 11.5 mph 21.9 mph N/A   Clear
12:14 PM 45.3 °F 39.3 °F 24.3 °F 44% 29.85 in 10.0 mi SSW 12.7 mph 19.6 mph N/A   Clear
12:34 PM 46.0 °F 40.6 °F 24.3 °F 42% 29.84 in 10.0 mi SSW 11.5 mph 20.7 mph N/A   Clear
12:54 PM 47.8 °F - 25.3 °F 41% 29.82 in 10.0 mi SSW 8.1 mph - N/A   Clear
1:14 PM 48.4 °F - 26.6 °F 43% 29.82 in 10.0 mi South 10.4 mph 19.6 mph N/A   Clear
1:34 PM 49.6 °F - 26.8 °F 41% 29.81 in 10.0 mi SW 11.5 mph 17.3 mph N/A   Clear
1:54 PM 50.2 °F - 26.4 °F 40% 29.80 in 10.0 mi SSW 11.5 mph 19.6 mph N/A   Clear
2:14 PM 51.4 °F - 27.1 °F 39% 29.79 in 10.0 mi SSW 10.4 mph 23.0 mph N/A   Clear
2:34 PM 52.9 °F - 27.9 °F 38% 29.76 in 10.0 mi SSW 13.8 mph 21.9 mph N/A   Clear
2:54 PM 53.8 °F - 28.6 °F 38% 29.73 in 10.0 mi SW 13.8 mph 27.6 mph N/A   Clear
3:14 PM 54.9 °F - 28.2 °F 36% 29.72 in 10.0 mi SSW 11.5 mph 25.3 mph N/A   Clear
3:34 PM 55.8 °F - 28.9 °F 36% 29.71 in 10.0 mi South 13.8 mph 24.2 mph N/A   Clear
3:54 PM 56.3 °F - 28.2 °F 34% 29.70 in 10.0 mi SW 18.4 mph 33.4 mph N/A   Clear
4:14 PM 55.8 °F - 28.4 °F 35% 29.69 in 10.0 mi SW 15.0 mph 31.1 mph N/A   Clear
4:34 PM 56.3 °F - 28.2 °F 34% 29.69 in 10.0 mi SW 15.0 mph 31.1 mph N/A   Clear
4:53 PM 56.1 °F - 28.4 °F 35% 29.68 in 10.0 mi SW 17.3 mph 24.2 mph N/A   Clear
5:14 PM 57.0 °F - 28.0 °F 33% 29.67 in 10.0 mi SW 12.7 mph 25.3 mph N/A   Clear
5:34 PM 57.4 °F - 28.2 °F 33% 29.66 in 10.0 mi SW 15.0 mph 24.2 mph N/A   Clear
5:54 PM 57.2 °F - 28.2 °F 33% 29.65 in 10.0 mi SW 13.8 mph 23.0 mph N/A   Clear
6:14 PM 56.3 °F - 27.1 °F 33% 29.66 in 10.0 mi SW 12.7 mph 29.9 mph N/A   Clear
6:34 PM 56.1 °F - 27.0 °F 33% 29.66 in 10.0 mi WSW 17.3 mph 33.4 mph N/A   Clear
6:54 PM 55.4 °F - 27.5 °F 34% 29.67 in 10.0 mi WSW 10.4 mph 20.7 mph N/A   Clear
7:14 PM 54.9 °F - 27.9 °F 35% 29.67 in 10.0 mi SW 11.5 mph 19.6 mph N/A   Mostly Cloudy
7:34 PM 54.5 °F - 28.8 °F 37% 29.67 in 10.0 mi SW 5.8 mph 17.3 mph N/A   Overcast
7:54 PM 54.7 °F - 28.4 °F 36% 29.67 in 10.0 mi SW 10.4 mph 20.7 mph N/A   Overcast
8:14 PM 55.0 °F - 28.0 °F 35% 29.67 in 10.0 mi SW 11.5 mph 21.9 mph N/A   Overcast
8:34 PM 54.7 °F - 28.2 °F 36% 29.68 in 10.0 mi SW 10.4 mph 25.3 mph N/A   Overcast
8:54 PM 54.5 °F - 28.2 °F 36% 29.67 in 10.0 mi SW 12.7 mph 20.7 mph N/A   Overcast
9:14 PM 54.0 °F - 28.6 °F 38% 29.67 in 10.0 mi SW 10.4 mph 23.0 mph N/A   Overcast
9:34 PM 53.8 °F - 28.8 °F 38% 29.68 in 10.0 mi SW 11.5 mph 23.0 mph N/A   Overcast
9:54 PM 52.2 °F - 31.5 °F 45% 29.69 in 10.0 mi WSW 13.8 mph 25.3 mph N/A Rain Light Rain
10:14 PM 51.8 °F - 32.0 °F 47% 29.70 in 10.0 mi WSW 16.1 mph 29.9 mph N/A   Light Drizzle
10:34 PM 48.2 °F - 36.5 °F 64% 29.71 in 7.0 mi SW 15.0 mph 24.2 mph N/A Rain Rain
10:54 PM 48.2 °F - 36.3 °F 63% 29.70 in 10.0 mi WSW 9.2 mph 17.3 mph N/A   Light Drizzle
11:14 PM 48.6 °F - 35.6 °F 61% 29.71 in 10.0 mi West 27.6 mph 47.2 mph N/A Rain Light Rain
11:34 PM 45.1 °F 39.1 °F 39.2 °F 80% 29.73 in 10.0 mi West 12.7 mph 21.9 mph 0.03 in Rain Light Rain
11:54 PM 44.8 °F 38.3 °F 38.5 °F 79% 29.72 in 10.0 mi WSW 13.8 mph 20.7 mph 0.03 in Rain Light Rain